Location: Borbetomagus
(49.6328°N, 8.3592°E)
Time: 23:51:32
(UTC+00:00)

Cosmos 2278 - Pass Details

Date: 19 May 2025
Orbit: 839 x 850 km, 71.1° (Epoch: 21 June)

Event Time Altitude Azimuth Distance (km) Brightness Sun altitude
Rises 23:07:02 0° 328° (NNW) 3,405 7.9 -20.3°
Reaches altitude 10° 23:09:33 10° 323° (NW) 2,466 6.9 -20.3°
Maximum altitude 23:14:59 51° 249° (WSW) 1,054 4.0 -20.4°
Enters shadow 23:16:42 38° 201° (SSW) 1,267 4.1 -20.4°
